Time,TemperatureF,DewpointF,PressureIn,WindDirection,WindDirectionDegrees,WindSpeedMPH,WindSpeedGustMPH,Humidity,HourlyPrecipIn,Conditions,Clouds,dailyrainin,SolarRadiationWatts/m^2,SoftwareType,DateUTC
2013-06-12 00:03:00,63.0,62.0,-100.00,NW,326,0.0,4.0,98,0.00,,,0.00,0.000000,,2013-06-12 05:03:00,
2013-06-12 00:32:00,64.0,64.0,-100.00,SE,131,3.0,6.0,100,0.00,,,0.00,0.000000,,2013-06-12 05:32:00,
2013-06-12 00:42:00,64.0,64.0,-100.00,SE,131,3.0,6.0,100,0.00,,,0.00,0.000000,,2013-06-12 05:42:00,
2013-06-12 00:52:00,64.0,64.0,-100.00,SE,131,3.0,6.0,100,0.00,,,0.00,0.000000,,2013-06-12 05:52:00,
2013-06-12 01:02:00,64.0,64.0,-100.00,SE,131,3.0,6.0,100,0.00,,,0.00,0.000000,,2013-06-12 06:02:00,
2013-06-12 01:32:00,65.0,65.0,-100.00,ENE,70,2.0,8.0,99,0.00,,,0.00,0.000000,,2013-06-12 06:32:00,
2013-06-12 01:42:00,65.0,65.0,-100.00,ENE,70,2.0,8.0,99,0.00,,,0.00,0.000000,,2013-06-12 06:42:00,
2013-06-12 01:52:00,65.0,65.0,-100.00,ENE,70,2.0,8.0,99,0.00,,,0.00,0.000000,,2013-06-12 06:52:00,
2013-06-12 02:02:00,65.0,65.0,-100.00,ENE,70,2.0,8.0,99,0.00,,,0.00,0.000000,,2013-06-12 07:02:00,
2013-06-12 02:33:00,64.0,64.0,-100.00,North,350,3.0,5.0,100,0.00,,,0.00,0.000000,,2013-06-12 07:33:00,
2013-06-12 02:43:00,64.0,64.0,-100.00,North,350,3.0,5.0,100,0.00,,,0.00,0.000000,,2013-06-12 07:43:00,
2013-06-12 02:53:00,64.0,64.0,-100.00,North,350,3.0,5.0,100,0.00,,,0.00,0.000000,,2013-06-12 07:53:00,
2013-06-12 03:02:00,64.0,64.0,-100.00,North,350,3.0,5.0,100,0.00,,,0.00,0.000000,,2013-06-12 08:02:00,
2013-06-12 03:33:00,65.0,64.0,-100.00,SE,130,5.0,7.0,98,0.00,,,0.00,0.000000,,2013-06-12 08:33:00,
2013-06-12 03:43:00,65.0,64.0,-100.00,SE,130,5.0,7.0,98,0.00,,,0.00,0.000000,,2013-06-12 08:43:00,
2013-06-12 03:53:00,65.0,64.0,-100.00,SE,130,5.0,7.0,98,0.00,,,0.00,0.000000,,2013-06-12 08:53:00,
2013-06-12 04:01:00,65.0,64.0,-100.00,SE,130,5.0,7.0,98,0.00,,,0.00,0.000000,,2013-06-12 09:01:00,
2013-06-12 04:33:00,64.0,64.0,-100.00,NNW,328,3.0,7.0,99,0.00,,,0.00,0.000000,,2013-06-12 09:33:00,
2013-06-12 04:43:00,64.0,64.0,-100.00,NNW,328,3.0,7.0,99,0.00,,,0.00,0.000000,,2013-06-12 09:43:00,
2013-06-12 04:53:00,64.0,64.0,-100.00,NNW,328,3.0,7.0,99,0.00,,,0.00,0.000000,,2013-06-12 09:53:00,
2013-06-12 05:02:00,64.0,64.0,-100.00,NNW,328,3.0,7.0,99,0.00,,,0.00,0.000000,,2013-06-12 10:02:00,
2013-06-12 05:33:00,63.0,63.0,-100.00,NNE,31,7.0,16.0,100,0.05,,,0.05,0.000000,,2013-06-12 10:33:00,
2013-06-12 05:43:00,63.0,63.0,-100.00,NNE,31,7.0,16.0,100,0.05,,,0.05,0.000000,,2013-06-12 10:43:00,
2013-06-12 05:53:00,63.0,63.0,-100.00,NNE,31,7.0,16.0,100,0.05,,,0.05,0.000000,,2013-06-12 10:53:00,
2013-06-12 06:02:00,63.0,63.0,-100.00,NNE,31,7.0,16.0,100,0.05,,,0.05,0.000000,,2013-06-12 11:02:00,
2013-06-12 06:33:00,63.0,63.0,-100.00,East,97,4.0,11.0,99,0.00,,,0.05,3.000000,,2013-06-12 11:33:00,
2013-06-12 06:43:00,63.0,63.0,-100.00,East,97,4.0,11.0,99,0.00,,,0.05,3.000000,,2013-06-12 11:43:00,
2013-06-12 06:53:00,63.0,63.0,-100.00,East,97,4.0,11.0,99,0.00,,,0.05,3.000000,,2013-06-12 11:53:00,
2013-06-12 07:02:00,63.0,63.0,-100.00,East,97,4.0,11.0,99,0.00,,,0.05,3.000000,,2013-06-12 12:02:00,
2013-06-12 07:33:00,63.0,63.0,-100.00,NE,46,2.0,8.0,99,0.00,,,0.05,20.000000,,2013-06-12 12:33:00,
2013-06-12 07:43:00,63.0,63.0,-100.00,NE,46,2.0,8.0,99,0.00,,,0.05,20.000000,,2013-06-12 12:43:00,
2013-06-12 07:53:00,63.0,63.0,-100.00,NE,46,2.0,8.0,99,0.00,,,0.05,20.000000,,2013-06-12 12:53:00,
2013-06-12 08:01:00,63.0,63.0,-100.00,NE,46,2.0,8.0,99,0.00,,,0.05,20.000000,,2013-06-12 13:01:00,
2013-06-12 08:33:00,63.0,63.0,-100.00,SE,130,2.0,6.0,100,0.00,,,0.05,23.000000,,2013-06-12 13:33:00,
2013-06-12 08:43:00,63.0,63.0,-100.00,SE,130,2.0,6.0,100,0.00,,,0.05,23.000000,,2013-06-12 13:43:00,
2013-06-12 08:53:00,63.0,63.0,-100.00,SE,130,2.0,6.0,100,0.00,,,0.05,23.000000,,2013-06-12 13:53:00,
2013-06-12 09:02:00,63.0,63.0,-100.00,SE,130,2.0,6.0,100,0.00,,,0.05,23.000000,,2013-06-12 14:02:00,
2013-06-12 09:33:00,65.0,65.0,-100.00,East,82,5.0,10.0,100,0.02,,,-99.99,92.000000,,2013-06-12 14:33:00,
2013-06-12 09:43:00,65.0,65.0,-100.00,East,82,5.0,10.0,100,0.02,,,-99.99,92.000000,,2013-06-12 14:43:00,
2013-06-12 09:53:00,65.0,65.0,-100.00,East,82,5.0,10.0,100,0.02,,,-99.99,92.000000,,2013-06-12 14:53:00,
2013-06-12 10:01:00,65.0,65.0,-100.00,East,82,5.0,10.0,100,0.02,,,-99.99,92.000000,,2013-06-12 15:01:00,
2013-06-12 10:33:00,66.0,64.0,-100.00,East,98,5.0,9.0,94,0.00,,,-99.99,138.000000,,2013-06-12 15:33:00,
2013-06-12 10:43:00,66.0,64.0,-100.00,East,98,5.0,9.0,94,0.00,,,-99.99,138.000000,,2013-06-12 15:43:00,
2013-06-12 10:52:00,66.0,64.0,-100.00,East,98,5.0,9.0,94,0.00,,,-99.99,138.000000,,2013-06-12 15:52:00,
2013-06-12 11:01:00,66.0,64.0,-100.00,East,98,5.0,9.0,94,0.00,,,-99.99,138.000000,,2013-06-12 16:01:00,
2013-06-12 11:33:00,70.0,64.0,-100.00,ENE,77,5.0,13.0,82,0.00,,,-99.99,305.000000,,2013-06-12 16:33:00,
2013-06-12 11:43:00,70.0,64.0,-100.00,ENE,77,5.0,13.0,82,0.00,,,-99.99,305.000000,,2013-06-12 16:43:00,
2013-06-12 11:53:00,70.0,64.0,-100.00,ENE,77,5.0,13.0,82,0.00,,,-99.99,305.000000,,2013-06-12 16:53:00,
2013-06-12 12:01:00,70.0,64.0,-100.00,ENE,77,5.0,13.0,82,0.00,,,-99.99,305.000000,,2013-06-12 17:01:00,
2013-06-12 12:33:00,73.0,64.0,-100.00,East,94,4.0,12.0,73,0.00,,,0.07,373.000000,,2013-06-12 17:33:00,
2013-06-12 12:42:00,73.0,64.0,-100.00,East,94,4.0,12.0,73,0.00,,,0.07,373.000000,,2013-06-12 17:42:00,
2013-06-12 12:52:00,73.0,64.0,-100.00,East,94,4.0,12.0,73,0.00,,,0.07,373.000000,,2013-06-12 17:52:00,
2013-06-12 13:02:00,73.0,64.0,-100.00,East,94,4.0,12.0,73,0.00,,,0.07,373.000000,,2013-06-12 18:02:00,
2013-06-12 13:33:00,78.0,65.0,-100.00,SSE,153,5.0,10.0,64,0.00,,,-99.99,721.000000,,2013-06-12 18:33:00,
2013-06-12 13:43:00,78.0,65.0,-100.00,SSE,153,5.0,10.0,64,0.00,,,-99.99,721.000000,,2013-06-12 18:43:00,
2013-06-12 13:53:00,78.0,65.0,-100.00,SSE,153,5.0,10.0,64,0.00,,,-99.99,721.000000,,2013-06-12 18:53:00,
2013-06-12 14:01:00,78.0,65.0,-100.00,SSE,153,5.0,10.0,64,0.00,,,-99.99,721.000000,,2013-06-12 19:01:00,
2013-06-12 14:32:00,78.0,63.0,-100.00,ESE,121,5.0,10.0,60,0.00,,,0.07,556.000000,,2013-06-12 19:32:00,
2013-06-12 14:43:00,78.0,63.0,-100.00,ESE,121,5.0,10.0,60,0.00,,,0.07,556.000000,,2013-06-12 19:43:00,
2013-06-12 14:52:00,78.0,63.0,-100.00,ESE,121,5.0,10.0,60,0.00,,,0.07,556.000000,,2013-06-12 19:52:00,
2013-06-12 15:01:00,78.0,63.0,-100.00,ESE,121,5.0,10.0,60,0.00,,,0.07,556.000000,,2013-06-12 20:01:00,
2013-06-12 15:33:00,79.0,63.0,-100.00,East,92,6.0,13.0,59,0.00,,,0.07,562.000000,,2013-06-12 20:33:00,
2013-06-12 15:43:00,79.0,63.0,-100.00,East,92,6.0,13.0,59,0.00,,,0.07,562.000000,,2013-06-12 20:43:00,
2013-06-12 15:54:00,79.0,63.0,-100.00,East,92,6.0,13.0,59,0.00,,,0.07,562.000000,,2013-06-12 20:54:00,
2013-06-12 16:01:00,79.0,63.0,-100.00,East,92,6.0,13.0,59,0.00,,,0.07,562.000000,,2013-06-12 21:01:00,
2013-06-12 16:33:00,77.0,63.0,-100.00,East,84,4.0,12.0,61,0.00,,,0.07,244.000000,,2013-06-12 21:33:00,
2013-06-12 16:43:00,77.0,63.0,-100.00,East,84,4.0,12.0,61,0.00,,,0.07,244.000000,,2013-06-12 21:43:00,
2013-06-12 16:53:00,77.0,63.0,-100.00,East,84,4.0,12.0,61,0.00,,,0.07,244.000000,,2013-06-12 21:53:00,
2013-06-12 17:01:00,77.0,63.0,-100.00,East,84,4.0,12.0,61,0.00,,,0.07,244.000000,,2013-06-12 22:01:00,
2013-06-12 17:33:00,73.0,61.0,-100.00,NE,55,5.0,15.0,67,0.00,,,-99.99,129.000000,,2013-06-12 22:33:00,
2013-06-12 17:43:00,73.0,61.0,-100.00,NE,55,5.0,15.0,67,0.00,,,-99.99,129.000000,,2013-06-12 22:43:00,
2013-06-12 17:52:00,73.0,61.0,-100.00,NE,55,5.0,15.0,67,0.00,,,-99.99,129.000000,,2013-06-12 22:52:00,
2013-06-12 18:02:00,73.0,61.0,-100.00,NE,55,5.0,15.0,67,0.00,,,-99.99,129.000000,,2013-06-12 23:02:00,
2013-06-12 18:32:00,66.0,64.0,-100.00,NE,44,7.0,16.0,92,0.03,,,0.10,75.000000,,2013-06-12 23:32:00,
2013-06-12 18:42:00,66.0,64.0,-100.00,NE,44,7.0,16.0,92,0.03,,,0.10,75.000000,,2013-06-12 23:42:00,
2013-06-12 18:53:00,66.0,64.0,-100.00,NE,44,7.0,16.0,92,0.03,,,0.10,75.000000,,2013-06-12 23:53:00,
2013-06-12 19:01:00,66.0,64.0,-100.00,NE,44,7.0,16.0,92,0.03,,,0.10,75.000000,,2013-06-13 00:01:00,
2013-06-12 19:33:00,65.0,62.0,-100.00,ENE,62,4.0,13.0,91,0.00,,,0.10,57.000000,,2013-06-13 00:33:00,
2013-06-12 19:43:00,65.0,62.0,-100.00,ENE,62,4.0,13.0,91,0.00,,,0.10,57.000000,,2013-06-13 00:43:00,
2013-06-12 19:52:00,65.0,62.0,-100.00,ENE,62,4.0,13.0,91,0.00,,,0.10,57.000000,,2013-06-13 00:52:00,
2013-06-12 20:01:00,65.0,62.0,-100.00,ENE,62,4.0,13.0,91,0.00,,,0.10,57.000000,,2013-06-13 01:01:00,
2013-06-12 20:33:00,63.0,59.0,-100.00,NE,47,3.0,10.0,88,0.00,,,0.10,50.000000,,2013-06-13 01:33:00,
2013-06-12 20:43:00,63.0,59.0,-100.00,NE,47,3.0,10.0,88,0.00,,,0.10,50.000000,,2013-06-13 01:43:00,
2013-06-12 20:53:00,63.0,59.0,-100.00,NE,47,3.0,10.0,88,0.00,,,0.10,50.000000,,2013-06-13 01:53:00,
2013-06-12 21:02:00,63.0,59.0,-100.00,NE,47,3.0,10.0,88,0.00,,,0.10,50.000000,,2013-06-13 02:02:00,
2013-06-12 21:33:00,62.0,60.0,-100.00,NNE,23,1.0,6.0,93,0.00,,,0.10,6.000000,,2013-06-13 02:33:00,
2013-06-12 21:43:00,62.0,60.0,-100.00,NNE,23,1.0,6.0,93,0.00,,,0.10,6.000000,,2013-06-13 02:43:00,
2013-06-12 21:52:00,62.0,60.0,-100.00,NNE,23,1.0,6.0,93,0.00,,,0.10,6.000000,,2013-06-13 02:52:00,
2013-06-12 22:02:00,62.0,60.0,-100.00,NNE,23,1.0,6.0,93,0.00,,,0.10,6.000000,,2013-06-13 03:02:00,
2013-06-12 22:33:00,61.0,60.0,-100.00,North,5,4.0,7.0,95,0.00,,,0.10,0.000000,,2013-06-13 03:33:00,
2013-06-12 22:43:00,61.0,60.0,-100.00,North,5,4.0,7.0,95,0.00,,,0.10,0.000000,,2013-06-13 03:43:00,
2013-06-12 22:52:00,61.0,60.0,-100.00,North,5,4.0,7.0,95,0.00,,,0.10,0.000000,,2013-06-13 03:52:00,
2013-06-12 23:01:00,61.0,60.0,-100.00,North,5,4.0,7.0,95,0.00,,,0.10,0.000000,,2013-06-13 04:01:00,
2013-06-12 23:33:00,60.0,59.0,-100.00,North,3,3.0,6.0,96,0.00,,,0.10,0.000000,,2013-06-13 04:33:00,
2013-06-12 23:43:00,60.0,59.0,-100.00,North,3,3.0,6.0,96,0.00,,,0.10,0.000000,,2013-06-13 04:43:00,
2013-06-12 23:53:00,60.0,59.0,-100.00,North,3,3.0,6.0,96,0.00,,,0.10,0.000000,,2013-06-13 04:53:00,